This is the latest recevied weather packets stored in our database for station/object DL4NBA-1. If no packets are shown the sender has not sent any weather packets the latest 10 day(s).
| Time | Temp. | Humidity | Pressure | Rain* | Wind** | Luminosity | Snow |
|---|---|---|---|---|---|---|---|
| 1777816305 | 27.22° C | - | - | 0 mm | 3.58 m/s, 238° | - | - |
| 1777816006 | 27.22° C | - | - | 0 mm | 0.89 m/s, 267° | - | - |
| 1777815404 | 28.89° C | - | - | 0 mm | 0 m/s | - | - |
| 1777815104 | 27.22° C | - | - | 0 mm | 0.89 m/s, 75° | - | - |
| 1777814805 | 27.22° C | - | - | 0 mm | 1.79 m/s, 35° | - | - |
| 1777814506 | 30° C | - | - | 0 mm | 0.45 m/s, 93° | - | - |
| 1777813904 | 30° C | - | - | 0 mm | 1.79 m/s, 98° | - | - |
| 1777813605 | 27.78° C | - | - | 0 mm | 1.34 m/s, 41° | - | - |
| 1777813305 | 27.78° C | - | - | 0 mm | 2.24 m/s, 25° | - | - |
| 1777813006 | 26.67° C | - | - | 0 mm | 0.89 m/s, 349° | - | - |
| 1777812707 | 26.67° C | - | - | 0 mm | 2.24 m/s, 27° | - | - |
| 1777812404 | 26.67° C | - | - | 0 mm | 0 m/s | - | - |
| 1777811504 | 27.22° C | - | - | 0 mm | 2.24 m/s, 89° | - | - |
| 1777811205 | 26.11° C | - | - | 0 mm | 1.34 m/s, 315° | - | - |
| 1777810903 | 26.67° C | - | - | 0 mm | 2.68 m/s, 333° | - | - |
| 1777810603 | 27.22° C | - | - | 0 mm | 1.79 m/s, 319° | - | - |
| 1777810303 | 26.67° C | - | - | 0 mm | 1.34 m/s, 342° | - | - |
| 1777810004 | 27.22° C | - | - | 0 mm | 1.79 m/s, 69° | - | - |
| 1777809103 | 26.11° C | - | - | 0 mm | 1.79 m/s, 349° | - | - |
| 1777808804 | 25° C | - | - | 0 mm | 3.13 m/s, 340° | - | - |
| 1777808505 | 25° C | - | - | 0 mm | 2.68 m/s, 338° | - | - |
| 1777808207 | 27.78° C | - | - | 0 mm | 1.79 m/s, 35° | - | - |
| 1777807904 | 26.67° C | - | - | 0 mm | 2.24 m/s, 82° | - | - |
| 1777807604 | 24.44° C | - | - | 0 mm | 0.45 m/s, 15° | - | - |
| 1777807304 | 24.44° C | - | - | 0 mm | 3.13 m/s, 340° | - | - |
* Rain latest hour (hover to see other rain measurements)
** Current wind speed in m/s (hover to see current wind gust speed)